Theta_e
310 310 309 307 307 306 306 306 307 307 307 307 307 306 307 308 309 309 308 308 308 308 308 308 308 308 309 309 310 311 312 313 313 314 315 316 317 319 320 321 323 324
309 308 307 306 305 305 304 305 305 305 305 305 305 305 307 308 308 308 306 306 306 306 306 306 306 306 306 306 307 308 309 311 311 312 312 313 313 313 315 317 319 320
307 306 305 305 304 304 304 303 303 303 303 303 303 304 304 306 307 306 304 304 304 304 304 304 304 304 304 304 305 305 306 307 306 307 308 309 308 308 310 311 313 315
305 305 305 305 304 304 303 303 302 302 302 302 302 302 302 303 304 303 302 302 302 302 302 302 302 302 303 303 304 305 305 304 303 303 304 304 304 304 305 306 307 309
305 305 305 305 304 304 304 303 301 301 300 300 300 300 301 301 301 301 300 300 301 301 301 301 301 301 302 302 303 303 302 301 300 300 301 301 301 301 302 303 303 305
306 305 305 305 305 305 304 303 301 300 299 299 299 299 299 299 299 299 298 298 299 299 299 299 299 299 300 301 302 301 298 298 298 299 299 300 300 301 301 302 302 303
306 306 306 306 305 305 304 303 302 300 299 299 298 298 298 298 299 298 297 297 297 297 297 297 297 297 298 299 299 298 296 297 297 298 299 299 300 301 301 301 302 303
306 306 305 305 305 304 303 302 301 300 299 299 298 298 298 297 297 297 297 296 296 296 296 296 296 296 296 297 296 295 295 296 297 297 298 299 299 300 301 301 302 303
304 304 304 303 302 302 301 300 299 299 298 298 298 297 297 297 296 296 296 296 295 295 295 295 295 295 295 295 295 295 295 295 296 297 297 298 299 299 300 301 301 302
301 301 301 300 300 299 299 299 298 298 298 297 297 297 297 296 296 296 296 296 295 295 295 295 295 295 295 295 295 294 295 295 296 297 297 298 298 298 299 299 300 301
299 299 299 299 299 299 299 298 298 298 297 297 297 297 296 296 296 296 296 295 295 295 295 295 294 294 294 295 294 294 295 295 296 296 297 297 297 297 297 297 298 299
300 299 299 299 299 299 298 298 298 298 297 297 296 296 296 296 296 296 295 295 295 295 295 294 294 294 294 294 294 294 295 295 295 296 296 297 297 296 296 296 297 298
300 300 300 300 299 299 298 298 298 297 297 296 296 296 295 295 296 296 296 295 295 295 295 295 294 294 294 294 294 294 294 294 295 295 295 296 296 296 296 296 296 297
301 300 300 299 299 299 298 298 297 297 296 296 296 295 295 295 296 296 296 296 295 295 295 295 294 294 294 294 294 294 294 294 294 294 294 294 295 295 295 295 296 296
301 300 299 299 298 297 297 297 296 296 296 296 296 295 295 295 296 296 296 295 295 295 295 295 294 294 293 293 293 293 294 294 294 294 294 294 294 294 295 295 295 295
301 300 299 298 297 296 295 295 295 294 294 295 295 295 295 295 295 296 295 295 295 295 295 295 294 293 293 293 293 293 293 293 293 293 293 293 293 294 294 294 294 294
300 300 299 297 295 294 294 294 293 293 293 293 294 294 294 295 295 296 295 295 295 295 295 295 294 294 293 293 293 293 292 293 293 293 293 293 293 293 294 294 294 294
300 298 296 295 294 294 293 293 292 292 292 292 293 293 294 294 295 295 295 295 295 295 295 294 294 294 293 293 293 293 292 292 292 292 293 292 292 292 293 293 293 293
297 295 294 294 294 293 292 292 292 291 291 292 292 292 293 293 294 294 294 294 295 295 295 295 294 294 294 293 293 292 292 292 292 292 292 292 292 292 292 293 292 293
295 294 294 294 293 293 292 292 291 291 291 291 292 292 292 292 292 293 294 294 295 295 295 295 294 294 294 293 293 292 292 292 292 292 292 292 292 292 292 292 292 292
294 294 294 293 293 293 292 292 291 291 291 291 291 291 291 291 292 293 293 294 295 295 295 295 294 294 294 293 292 292 292 292 292 292 292 292 291 291 291 291 291 292
294 294 294 293 293 293 292 292 291 291 291 291 291 292 292 292 293 293 294 294 295 295 295 295 294 295 295 293 292 292 292 292 292 292 291 291 291 291 291 291 291 292
294 294 294 294 293 293 293 292 292 291 291 291 292 292 293 293 294 294 294 295 295 295 295 295 295 295 294 292 291 292 292 292 292 291 291 291 291 291 291 290 291 292
295 294 294 294 293 293 293 292 292 291 291 291 291 292 293 293 294 294 294 294 295 295 295 295 295 294 293 291 292 292 292 292 292 292 291 291 291 291 291 290 291 291
295 294 294 294 293 293 293 292 292 291 291 291 291 292 292 293 293 293 294 294 294 294 294 294 294 293 292 291 292 292 292 292 292 292 292 291 291 291 291 291 291 291
295 294 294 294 294 293 293 292 292 292 291 291 291 291 292 292 292 293 293 293 293 293 293 293 293 292 291 291 291 292 293 293 292 292 292 292 291 291 291 291 291 291
Wind_Speed
14 14 15 16 17 17 17 17 18 18 19 19 19 19 18 18 17 18 19 19 19 19 20 20 21 21 21 20 19 18 18 17 17 17 17 16 16 16 16 17 16 17
14 15 16 17 19 20 21 21 21 21 21 21 20 18 17 16 16 17 18 19 20 21 21 21 22 23 23 22 21 19 18 17 17 18 18 17 17 16 16 17 17 17
16 17 18 20 21 22 23 23 23 23 23 22 21 20 18 16 16 16 19 21 22 23 23 24 24 24 25 24 22 21 20 18 18 18 18 18 18 18 17 17 17 17
18 19 20 21 22 23 23 24 25 24 23 23 23 21 20 18 17 18 21 23 24 25 25 25 26 27 27 26 24 23 22 20 20 21 21 21 20 20 20 19 19 19
18 18 19 21 22 23 24 25 25 24 24 24 24 23 21 20 20 21 24 26 26 27 27 27 28 29 29 28 27 25 22 21 21 23 24 24 23 22 22 21 21 21
14 15 15 17 19 22 24 25 24 24 24 24 24 24 23 22 21 21 25 27 28 29 29 30 31 32 32 30 29 26 22 20 22 24 24 24 24 24 24 22 21 22
13 13 13 13 15 18 20 21 21 22 23 24 24 24 24 23 21 21 24 28 29 31 32 33 34 35 35 33 29 26 22 20 22 23 22 22 23 24 25 24 21 22
13 13 13 13 15 16 18 18 19 19 21 22 24 24 24 25 24 23 25 28 30 32 33 34 35 35 36 34 30 26 24 22 21 21 21 20 21 22 22 22 22 22
14 15 15 16 17 18 18 19 19 19 21 23 24 25 24 25 25 25 26 28 30 32 33 34 35 36 36 35 31 27 26 24 20 20 21 21 22 23 22 22 23 23
18 19 19 19 20 20 20 19 20 20 22 24 24 25 25 25 25 25 26 28 29 31 33 34 35 36 36 36 33 29 29 27 21 19 20 21 21 23 24 23 23 23
22 21 21 21 20 20 20 20 20 21 22 23 23 24 24 24 25 26 26 27 28 29 31 33 34 35 36 36 33 31 30 28 23 20 20 20 21 23 25 23 22 22
20 20 20 20 19 19 19 19 20 20 21 21 22 22 23 24 24 25 26 27 27 27 29 32 34 35 36 36 34 32 30 28 25 23 21 19 21 26 27 24 22 21
17 17 17 17 17 16 17 17 18 18 19 20 20 21 22 23 24 24 25 26 27 27 29 32 34 35 36 36 35 34 32 30 28 26 24 23 23 27 28 25 22 21
16 15 15 15 15 15 15 15 16 17 17 18 18 20 21 21 22 23 24 25 26 28 29 32 34 36 37 37 36 34 32 31 30 29 28 27 27 28 27 24 22 21
15 15 15 15 15 15 15 14 15 15 15 15 16 17 18 19 19 21 22 24 26 27 29 31 33 35 36 36 36 35 33 32 30 30 29 29 29 28 25 22 22 23
16 14 14 14 14 15 14 14 14 14 14 14 15 15 16 17 18 19 21 23 25 27 28 29 31 33 34 35 35 35 34 32 31 31 30 29 29 27 24 23 23 23
16 13 13 14 14 14 14 14 14 15 15 15 14 14 15 16 17 19 20 22 24 25 26 28 29 31 33 36 37 36 35 33 32 32 30 30 29 26 24 23 24 24
15 14 14 14 15 15 15 15 15 16 16 16 15 15 15 15 17 18 19 21 22 24 25 26 28 30 33 36 38 38 37 34 32 32 31 30 30 27 23 23 25 25
16 16 16 16 16 16 17 18 17 17 17 16 15 15 14 15 16 17 18 20 22 23 23 24 26 29 31 34 37 38 37 35 32 31 30 29 30 28 24 24 25 25
19 19 19 18 19 19 20 21 20 19 18 17 16 16 16 16 17 17 19 20 22 22 22 23 25 28 30 32 36 38 37 34 32 31 30 29 29 27 25 24 24 25
21 21 21 21 21 21 22 22 21 19 19 18 18 18 18 19 19 19 19 20 21 22 22 22 24 26 28 31 35 37 36 34 32 32 31 30 30 28 25 24 24 24
20 20 20 20 20 21 22 21 20 20 20 20 20 20 20 21 21 21 21 21 22 22 21 21 23 25 27 30 34 35 35 34 33 33 33 32 31 30 26 24 24 25
19 19 19 19 19 20 20 20 20 21 21 21 22 22 22 22 22 22 23 23 23 22 22 21 22 24 27 31 33 34 36 35 33 33 34 33 32 31 28 25 24 26
16 16 17 17 17 18 18 19 20 21 21 22 22 22 21 22 22 22 23 24 24 23 23 23 23 25 29 31 32 34 36 35 33 34 35 34 33 33 31 29 29 29
14 14 15 15 16 16 17 18 19 20 21 23 23 23 22 21 21 22 23 24 24 23 24 24 25 27 29 31 32 33 36 35 34 34 35 35 34 34 34 34 34 35
13 13 13 14 15 16 17 18 19 20 21 23 24 24 24 23 23 23 23 23 24 24 24 24 26 28 30 31 31 33 34 35 34 34 34 33 33 33 34 35 36 37
Wind_Direction
60 56 54 54 54 52 50 50 48 47 45 42 40 39 37 38 37 32 26 23 22 21 18 15 11 8 5 2 359 355 351 347 344 343 341 338 333 328 322 318 315 309
61 60 62 63 64 62 60 59 56 53 50 46 42 39 35 36 38 36 30 26 26 25 23 21 17 14 11 8 5 360 353 346 340 337 336 335 334 331 326 320 315 310
67 66 68 67 65 63 61 59 56 52 49 46 43 40 38 39 41 39 34 31 31 29 27 24 21 18 15 11 9 6 3 358 353 348 343 339 338 335 331 326 319 314
73 70 68 65 62 60 57 54 51 49 46 44 42 41 42 44 45 43 39 35 33 31 28 26 23 21 17 14 11 9 9 8 5 3 360 355 352 348 343 339 332 325
78 73 67 63 59 55 52 51 49 47 46 45 44 43 45 47 47 43 38 35 34 32 30 28 25 23 20 17 15 13 12 11 10 10 8 4 2 360 354 349 345 340
81 77 71 64 58 53 50 49 48 46 45 44 44 45 46 47 45 40 36 36 36 35 34 32 29 26 23 21 19 17 12 11 11 11 9 5 2 2 0 355 348 345
82 79 75 69 63 58 55 52 49 47 45 45 45 45 46 48 48 43 39 38 38 37 36 34 31 27 24 22 21 17 11 8 8 8 6 2 360 359 360 357 348 342
82 78 75 71 68 65 61 59 54 50 48 49 49 48 49 51 51 48 43 41 39 37 36 34 31 28 25 24 22 16 9 4 3 2 0 358 356 353 352 352 347 340
79 75 73 70 68 66 63 61 58 56 54 54 54 53 52 51 49 47 44 41 39 36 35 33 31 28 27 26 24 18 10 4 1 360 358 356 354 352 348 346 344 342
79 77 75 72 70 66 64 63 62 60 59 57 55 54 52 50 48 46 44 41 38 35 33 32 30 28 27 26 25 20 15 11 6 360 358 358 355 353 349 345 342 340
81 79 76 73 71 67 65 65 63 62 59 56 55 53 51 49 47 45 43 40 37 34 32 30 29 27 26 25 23 21 19 16 11 2 358 356 354 353 350 347 344 339
84 80 77 74 70 67 66 65 62 60 57 55 53 51 50 48 46 44 43 40 38 34 31 30 29 27 25 24 22 20 19 17 14 7 360 355 352 352 352 349 345 342
89 83 79 76 71 68 65 64 61 59 56 55 52 50 48 46 46 45 44 42 39 36 33 31 29 26 24 22 20 19 18 16 14 9 3 358 353 351 353 351 346 345
97 89 83 77 71 67 65 64 62 58 55 53 51 49 47 45 45 45 44 43 41 38 36 33 30 27 24 20 18 17 17 15 13 10 6 2 358 355 354 352 348 346
104 94 83 74 69 68 66 63 59 55 52 49 47 45 43 43 44 45 44 43 40 38 36 34 31 28 25 21 17 15 15 14 12 10 7 3 360 357 353 350 348 346
107 95 79 70 69 70 66 61 54 50 47 45 43 41 40 41 42 45 45 42 39 36 35 34 32 28 26 24 20 17 14 13 11 9 8 4 360 355 350 348 347 344
105 93 77 72 74 71 65 59 54 50 48 45 44 42 40 39 40 42 43 41 38 35 34 34 31 27 25 23 21 19 16 13 10 8 7 4 1 355 349 347 346 343
101 93 85 81 77 70 64 60 56 52 48 44 43 42 40 40 40 40 41 39 38 36 34 33 31 26 24 21 19 18 16 12 10 8 6 4 2 357 350 347 346 343
101 96 91 85 78 72 67 62 58 53 48 45 44 43 42 41 40 39 39 37 35 34 33 33 31 25 22 20 18 15 13 11 10 8 5 3 2 359 352 348 347 344
102 97 91 86 80 74 68 64 61 57 54 51 48 45 42 41 39 40 40 37 34 34 34 33 30 24 20 18 16 13 11 11 10 8 5 3 2 1 355 350 348 346
101 96 91 86 81 74 68 65 63 60 58 54 52 50 48 46 46 45 43 38 34 34 36 35 29 23 19 17 14 12 12 12 11 8 6 4 4 2 357 353 352 350
102 97 92 86 81 75 70 66 62 59 57 55 55 57 56 55 53 49 44 40 36 35 37 35 28 22 19 17 15 13 14 14 11 9 8 7 5 4 359 356 356 354
103 98 94 89 83 77 71 67 63 60 58 56 57 58 59 57 54 49 45 42 39 37 36 32 26 24 22 20 19 18 17 16 13 10 10 8 7 6 3 360 359 358
104 100 96 92 87 80 74 69 66 62 60 59 59 60 60 59 56 52 49 45 42 40 36 32 31 30 26 23 22 21 20 18 15 13 12 10 8 7 5 3 1 0
109 105 101 97 91 84 77 72 68 66 64 63 63 63 63 61 59 56 52 48 45 42 38 36 36 33 28 25 24 23 21 20 17 14 12 10 7 5 4 4 2 2
118 113 107 101 94 87 80 75 71 69 66 65 65 64 64 63 61 58 55 51 48 45 42 39 36 33 29 27 25 24 22 21 19 15 10 7 6 4 2 1 2 2